Date,TemperatureHighF,TemperatureAvgF,TemperatureLowF,DewpointHighF,DewpointAvgF,DewpointLowF,HumidityHigh,HumidityAvg,HumidityLow,PressureMaxIn,PressureMinIn,WindSpeedMaxMPH,WindSpeedAvgMPH,GustSpeedMaxMPH,PrecipitationSumIn
2013-2-1,32.8,21.2,8.5,9.9,1.8,-4.5,60,44,26,30.51,30.25,16,6,18,0.00
2013-2-2,51.9,36.2,20.2,30.4,21.6,9.5,70,56,41,30.28,30.12,20,6,25,0.00
2013-2-3,51.3,41.7,34.1,28.6,22.9,18.1,67,49,28,30.24,30.04,18,7,27,0.00
2013-2-4,56.2,43.3,36.4,43.3,33.3,21.3,89,68,53,30.04,29.84,12,4,17,0.06
2013-2-5,64.1,42.5,24.5,38.8,28.3,19.6,85,62,26,30.10,29.94,15,4,22,0.00
2013-2-6,57.1,42.5,25.4,34.7,30.1,19.1,83,63,41,30.21,30.05,14,6,19,0.00
2013-2-7,64.7,46.6,32.6,50.2,40.4,27.7,91,79,56,30.05,29.87,12,4,19,0.71
2013-2-8,48.6,38.7,29.9,39.5,29.7,23.6,85,71,50,30.31,30.05,14,6,21,0.00
2013-2-9,40.2,33.9,28.5,33.7,27.6,23.4,86,78,66,30.32,29.98,14,7,18,0.12
2013-2-10,64.8,50.1,37.7,53.8,36.2,23.3,91,65,22,30.00,29.64,25,11,32,0.71
2013-2-11,53.9,40.8,26.5,28.3,23.6,18.9,77,53,27,30.18,30.00,23,6,33,0.00
2013-2-12,47.6,34.8,20.4,32.0,25.3,15.5,85,69,46,30.17,29.92,9,3,14,0.07
2013-2-13,51.0,39.0,32.1,35.8,30.1,25.5,93,72,40,30.00,29.90,16,6,21,0.27
2013-2-14,58.5,43.5,29.2,34.2,28.7,22.6,78,58,36,30.12,29.94,13,4,21,0.00
2013-2-15,43.6,36.6,24.5,30.9,18.5,4.4,66,49,26,30.28,30.12,14,7,27,0.00
2013-2-16,38.4,29.3,19.7,20.3,12.7,4.5,76,51,26,30.30,30.18,13,4,17,0.00
2013-2-17,58.5,43.1,31.0,33.8,23.9,15.9,70,48,28,30.18,29.93,15,8,23,0.00
2013-2-18,52.1,46.1,33.5,47.4,38.3,23.0,90,74,63,30.05,29.65,37,12,37,0.18
2013-2-19,42.9,33.0,23.4,22.7,12.8,6.1,66,45,24,30.32,30.06,23,10,29,0.00
2013-2-20,34.1,27.9,22.4,12.9,6.4,2.6,56,40,28,30.36,30.19,8,4,15,0.00
2013-2-21,30.6,28.6,26.0,27.3,21.8,12.9,88,76,51,30.20,29.80,13,3,23,0.07
2013-2-22,33.9,29.2,22.5,29.0,21.8,16.2,88,74,59,30.11,29.84,13,1,16,0.01
2013-2-23,43.1,28.7,16.8,23.7,18.0,10.0,80,65,44,30.11,29.98,10,2,14,0.02
2013-2-24,52.4,36.0,18.6,32.2,24.3,12.9,82,64,42,30.10,29.95,13,5,19,0.00
2013-2-25,52.4,40.8,35.0,34.9,28.4,22.0,87,64,35,29.96,29.40,22,10,34,1.58
2013-2-26,37.1,34.1,31.7,33.7,29.4,26.4,88,83,76,29.83,29.33,18,10,24,0.63
2013-2-27,37.8,33.7,32.4,29.0,24.6,21.2,76,69,61,30.01,29.79,21,10,30,0.00
2013-2-28,36.2,32.6,29.7,24.5,22.1,21.0,71,65,60,30.17,29.98,16,10,24,0.00